Stanley, ID

10:09 PM MDT on October 19, 2017 (GMT -0600)
Stanley

Weather History for KSNT - January, 2013

Change the Weather History Date:

Wednesday, January 9, 2013

  Actual Average Record
Temperature  
Mean Temperature 33 °F 14 °F  
Max Temperature 40 °F 26 °F 41 °F (1984)
Min Temperature 25 °F 2 °F -29 °F (1987)
Degree Days  
Heating Degree Days 32 51  
Month to date heating degree days 479 459  
Since 1 July heating degree days 4609 5121  
Cooling Degree Days 0 0  
Month to date cooling degree days 0 0  
Year to date cooling degree days 0 0  
Moisture  
Dew Point 24 °F    
Average Humidity 72    
Maximum Humidity 92    
Minimum Humidity 52    
Precipitation  
Precipitation 0.07 in 0.05 in 3.52 in (2017)
Month to date precipitation 0.13 0.50  
Year to date precipitation 0.13 0.50  
Sea Level Pressure  
Sea Level Pressure 29.85 in    
Wind  
Wind Speed 11 mph (SSE)    
Max Wind Speed 20 mph    
Max Gust Speed 32 mph    
T = Trace of Precipitation, MM = Missing Value Source: NWS Daily Summary

Daily Weather History Graph

Daily Weather History Graph

Search for Another Location

Airport or City:

Trip Planner

Search our weather history database for the weather conditions in past years. The results will help you decide how hot, cold, wet, or windy it might be!

Date:

Astronomy

Jan. 09, 2013 Rise Set
Actual Time 8:14 AM MST 5:20 PM MST
Civil Twilight 7:41 AM MST 5:52 PM MST
Nautical Twilight 7:05 AM MST 6:28 PM MST
Astronomical Twilight 6:30 AM MST 7:03 PM MST
Moon 5:58 AM MST (1/9) 3:26 PM MST (1/9)
Length of Visible Light 10h 11m
Length of Day
9h 06m
Waning Crescent, 6% of the Moon is Illuminated
Jan 9
Waning Crescent
Jan 11
New
Jan 18
First Quarter
Jan 26
Full
Feb 3
Last Quarter

Hourly Weather History & Observations

Time (MST) Temp. Windchill Dew Point Humidity Pressure Visibility Wind Dir Wind Speed Gust Speed Precip Events Conditions
12:51 AM 26.1 °F 19.4 °F 21.0 °F 81% 30.17 in - SE 5.8 mph - N/A   Unknown
1:51 AM 30.0 °F 21.7 °F 21.9 °F 72% 30.12 in - South 9.2 mph - N/A   Unknown
2:51 AM 32.0 °F 24.8 °F 24.1 °F 73% 30.09 in - SSE 8.1 mph 17.3 mph N/A   Unknown
3:51 AM 32.0 °F 22.5 °F 23.0 °F 69% 30.09 in - SSE 12.7 mph 23.0 mph N/A   Unknown
4:51 AM 32.0 °F 22.1 °F 24.1 °F 73% 30.05 in - South 13.8 mph 23.0 mph N/A   Unknown
5:51 AM 30.9 °F 21.2 °F 23.0 °F 72% 30.04 in - South 12.7 mph - N/A   Unknown
6:51 AM 33.1 °F 23.0 °F 24.1 °F 70% 30.00 in - SSE 15.0 mph 20.7 mph N/A   Unknown
7:51 AM 33.1 °F 23.4 °F 24.1 °F 70% 29.99 in - SSE 13.8 mph 23.0 mph N/A   Unknown
8:51 AM 35.1 °F 27.4 °F 24.1 °F 64% 30.00 in - SSE 10.4 mph 20.7 mph N/A   Unknown
9:51 AM 37.0 °F 29.8 °F 25.0 °F 62% 29.94 in - SSE 10.4 mph 25.3 mph N/A   Unknown
10:51 AM 37.9 °F 28.9 °F 25.0 °F 60% 29.91 in - SSE 16.1 mph 21.9 mph N/A   Unknown
11:51 AM 39.9 °F 31.1 °F 25.0 °F 55% 29.87 in - SSE 17.3 mph 25.3 mph N/A   Unknown
12:51 PM 39.0 °F 30.6 °F 25.0 °F 57% 29.82 in - SE 15.0 mph 24.2 mph N/A   Unknown
1:51 PM 39.0 °F 29.6 °F 24.1 °F 55% 29.78 in - SSE 18.4 mph 26.5 mph N/A   Unknown
2:51 PM 37.9 °F 29.6 °F 24.1 °F 57% 29.76 in - South 13.8 mph 18.4 mph N/A   Unknown
3:51 PM 37.0 °F 30.4 °F 24.1 °F 59% 29.75 in - SSE 9.2 mph - N/A   Unknown
4:51 PM 36.0 °F 29.0 °F 23.0 °F 59% 29.73 in - SE 9.2 mph 18.4 mph N/A   Unknown
5:51 PM 36.0 °F 29.0 °F 21.9 °F 57% 29.70 in - SE 9.2 mph 20.7 mph N/A   Unknown
6:51 PM 37.0 °F 29.3 °F 21.0 °F 52% 29.67 in - SE 11.5 mph 18.4 mph N/A   Unknown
7:51 PM 37.0 °F 31.0 °F 21.0 °F 52% 29.66 in - SSE 8.1 mph - N/A   Unknown
8:51 PM 37.0 °F 29.3 °F 21.0 °F 52% 29.61 in - SE 11.5 mph 17.3 mph N/A   Unknown
9:51 PM 36.0 °F 30.3 °F 21.0 °F 55% 29.58 in - South 6.9 mph - N/A   Unknown
10:51 PM 30.9 °F 22.8 °F 28.0 °F 89% 29.60 in - SSE 9.2 mph - 0.03 in   Unknown
11:51 PM 30.0 °F 24.1 °F 28.0 °F 92% 29.56 in - SSE 5.8 mph - 0.04 in   Unknown